Provo, UT

6:55 AM MDT on June 24, 2017 (GMT -0600)
Provo Municipal

Weather History for KPVU - March, 2012

Change the Weather History Date:

Sunday, March 25, 2012

  Actual Average Record
Temperature  
Mean Temperature 58 °F -  
Max Temperature 69 °F 54 °F 73 °F (2004)
Min Temperature 48 °F 32 °F 19 °F (2013)
Degree Days  
Heating Degree Days 6    
Growing Degree Days 8 (Base 50)    
Moisture  
Dew Point 31 °F    
Average Humidity 37    
Maximum Humidity 54    
Minimum Humidity 23    
Precipitation  
Precipitation 0.00 in - - ()
Sea Level Pressure  
Sea Level Pressure 29.85 in    
Wind  
Wind Speed 9 mph (SSE)    
Max Wind Speed 17 mph    
Max Gust Speed -    
Visibility 12 miles    
Events      
Averages and records for this station are not official NWS values.
T = Trace of Precipitation, MM = Missing Value Source: NWS Daily Summary

Daily Weather History Graph

Daily Weather History Graph

Search for Another Location

Airport or City:

Trip Planner

Search our weather history database for the weather conditions in past years. The results will help you decide how hot, cold, wet, or windy it might be!

Date:

Astronomy

Mar. 25, 2012 Rise Set
Actual Time 7:21 AM MDT 7:44 PM MDT
Civil Twilight 6:54 AM MDT 8:11 PM MDT
Nautical Twilight 6:22 AM MDT 8:43 PM MDT
Astronomical Twilight 5:49 AM MDT 9:16 PM MDT
Moon 8:35 AM MDT (3/25) 11:04 PM MDT (3/25)
Length of Visible Light 13h 17m
Length of Day
12h 23m
Waxing Crescent, 9% of the Moon is Illuminated
Mar 25
Waxing Crescent
Mar 30
First Quarter
Apr 6
Full
Apr 13
Last Quarter
Apr 21
New

Hourly Weather History & Observations

Time (MDT) Temp. Dew Point Humidity Pressure Visibility Wind Dir Wind Speed Gust Speed Precip Events Conditions
12:15 AM 59.0 °F 30.2 °F 34% 29.94 in 10.0 mi South 11.5 mph - N/A   Clear
12:35 AM 59.0 °F 32.0 °F 36% 29.94 in 10.0 mi SSE 12.7 mph - N/A   Clear
12:55 AM 57.2 °F 33.8 °F 41% 29.94 in 10.0 mi SSE 9.2 mph - N/A   Clear
1:15 AM 57.2 °F 33.8 °F 41% 29.94 in 10.0 mi SSE 9.2 mph - N/A   Clear
1:35 AM 55.4 °F 33.8 °F 44% 29.93 in 10.0 mi SE 10.4 mph - N/A   Clear
1:55 AM 55.4 °F 32.0 °F 41% 29.93 in 10.0 mi South 11.5 mph - N/A   Clear
2:15 AM 55.4 °F 32.0 °F 41% 29.93 in 10.0 mi South 16.1 mph - N/A   Clear
2:35 AM 55.4 °F 32.0 °F 41% 29.92 in 10.0 mi SSE 10.4 mph - N/A   Clear
2:55 AM 57.2 °F 32.0 °F 38% 29.92 in 10.0 mi SE 17.3 mph - N/A   Clear
3:15 AM 57.2 °F 32.0 °F 38% 29.92 in 10.0 mi SE 15.0 mph - N/A   Clear
3:35 AM 57.2 °F 33.8 °F 41% 29.91 in 10.0 mi SE 12.7 mph - N/A   Clear
3:55 AM 57.2 °F 30.2 °F 36% 29.91 in 10.0 mi SSE 15.0 mph - N/A   Clear
4:15 AM 55.4 °F 30.2 °F 38% 29.91 in 10.0 mi SE 15.0 mph - N/A   Clear
4:35 AM 55.4 °F 30.2 °F 38% 29.90 in 10.0 mi SE 9.2 mph - N/A   Clear
5:15 AM 51.8 °F 28.4 °F 41% 29.90 in 10.0 mi Calm Calm - N/A   Clear
5:35 AM 53.6 °F 26.6 °F 35% 29.91 in 10.0 mi NW 5.8 mph - N/A   Clear
5:55 AM 53.6 °F 30.2 °F 41% 29.91 in 10.0 mi Calm Calm - N/A   Clear
6:15 AM 53.6 °F 28.4 °F 38% 29.92 in 10.0 mi SSE 4.6 mph - N/A   Clear
6:35 AM 53.6 °F 28.4 °F 38% 29.92 in 10.0 mi South 3.5 mph - N/A   Clear
6:49 AM 51.8 °F 26.6 °F 38% 29.92 in 15.0 mi SSE 5.8 mph - N/A   Mostly Cloudy
6:55 AM 51.8 °F 26.6 °F 38% 29.92 in 10.0 mi South 9.2 mph - N/A   Clear
7:47 AM 48.2 °F 30.2 °F 50% 29.93 in 15.0 mi Calm Calm - N/A   Mostly Cloudy
8:47 AM 50.0 °F 33.8 °F 54% 29.93 in 15.0 mi Calm Calm - N/A   Mostly Cloudy
9:47 AM 55.4 °F 37.4 °F 51% 29.93 in 15.0 mi Calm Calm - N/A   Mostly Cloudy
10:47 AM 59.0 °F 33.8 °F 39% 29.92 in 15.0 mi Variable 3.5 mph - N/A   Mostly Cloudy
11:49 AM 53.6 °F 33.8 °F 47% 29.91 in 15.0 mi Variable 5.8 mph - N/A   Overcast
12:48 PM 57.2 °F 30.2 °F 36% 29.89 in 15.0 mi Variable 5.8 mph - N/A   Overcast
1:54 PM 64.4 °F 28.4 °F 26% 29.85 in 15.0 mi Variable 4.6 mph - N/A   Overcast
2:48 PM 66.2 °F 28.4 °F 24% 29.83 in 15.0 mi Calm Calm - N/A   Mostly Cloudy
3:50 PM 69.8 °F 30.2 °F 23% 29.78 in 15.0 mi Calm Calm - N/A   Overcast
4:50 PM 66.2 °F 30.2 °F 26% 29.77 in 15.0 mi Calm Calm - N/A   Mostly Cloudy
5:50 PM 66.2 °F 30.2 °F 26% 29.75 in 15.0 mi Variable 4.6 mph - N/A   Overcast
6:50 PM 64.4 °F 32.0 °F 30% 29.75 in 15.0 mi SSE 9.2 mph - N/A   Mostly Cloudy
7:50 PM 62.6 °F 30.2 °F 30% 29.73 in 15.0 mi SE 17.3 mph - N/A   Mostly Cloudy
8:50 PM 57.2 °F 30.2 °F 36% 29.72 in 15.0 mi Variable 5.8 mph - N/A   Mostly Cloudy
9:15 PM 55.4 °F 30.2 °F 38% 29.71 in 10.0 mi SE 10.4 mph - N/A   Clear
9:35 PM 62.6 °F 26.6 °F 26% 29.71 in 10.0 mi SE 16.1 mph - N/A   Clear
9:55 PM 62.6 °F 28.4 °F 27% 29.71 in 10.0 mi SE 15.0 mph - N/A   Clear
10:15 PM 60.8 °F 26.6 °F 27% 29.71 in 10.0 mi SSE 12.7 mph - N/A   Clear
10:35 PM 57.2 °F 30.2 °F 36% 29.71 in 10.0 mi SSE 11.5 mph - N/A   Clear
10:55 PM 57.2 °F 30.2 °F 36% 29.71 in 10.0 mi SE 8.1 mph - N/A   Clear
11:15 PM 53.6 °F 33.8 °F 47% 29.71 in 10.0 mi West 5.8 mph - N/A   Clear
11:35 PM 55.4 °F 30.2 °F 38% 29.71 in 10.0 mi SSW 8.1 mph - N/A   Clear
11:55 PM 55.4 °F 30.2 °F 38% 29.71 in 10.0 mi South 3.5 mph - N/A   Clear